Tracking 29487 objects as of 11-Sep-2024
HD Live streaming from Space Station
objects crossing your sky now

METEOR 2-8 DEB

Track METEOR 2-8 DEB now!
10-day predictions


NORAD ID: 36862
Int'l Code: 1982-025AZ
Perigee: 831.1 km
Apogee: 856.6 km
Inclination: 82.5 °
Period: 101.6 minutes
Semi major axis: 7214 km
RCS: 0.0072 m2 (small)
Launch date: March 25, 1982
Source: Commonwealth of Independent States (former USSR) (CIS)
Launch site: PLESETSK MISSILE AND SPACE COMPLEX (PKMTR)

Note: This is SATELLITE DEBRIS
Your satellite tracking list
Your tracking list is empty




NASA's NSSDC Master Catalog

Two Line Element Set (TLE):
1 36862U 82025AZ  24246.82119428  .00010235  00000-0  51104-2 0  9999
2 36862  82.5419  77.0284 0017656 357.0612   3.0460 14.16642008523110
Source of the keplerian elements: AFSPC